Location: Unspecified
(0.0000°N, 0.0000°E)
Time: 14:49:15
(UTC+00:00)

YUBILEINY - Visible Passes

Search period start: 22 July 2018 00:00
Search period end: 01 August 2018 00:00
Orbit: 1478 x 1509 km, 82.5° (Epoch: 22 July)

Date Brightness Start Highest point End Pass type
(mag) Time Alt. Az. Time Alt. Az. Time Alt. Az.
22 Jul ? 03:08:48 65° ENE 03:08:48 65° ENE 03:16:33 10° NNE visible
22 Jul ? 05:04:46 13° W 05:04:46 13° W 05:07:52 10° WNW visible
23 Jul ? 02:20:22 29° ENE 02:20:22 29° ENE 02:25:52 10° NE visible
23 Jul ? 04:16:20 31° WNW 04:16:20 31° WNW 04:22:25 10° NNW visible
24 Jul ? 01:31:53 10° ENE 01:31:53 10° ENE 01:32:03 10° ENE visible
24 Jul ? 03:27:51 52° NNW 03:27:51 52° NNW 03:34:09 10° N visible
25 Jul ? 02:39:19 38° NE 02:39:19 38° NE 02:44:30 10° NNE visible
25 Jul ? 04:35:17 15° WNW 04:35:17 15° WNW 04:37:48 10° NW visible
26 Jul ? 01:50:46 17° ENE 01:50:46 17° ENE 01:53:16 10° NE visible
26 Jul ? 03:46:43 29° NW 03:46:43 29° NW 03:51:05 10° NNW visible
27 Jul ? 02:58:07 34° N 02:58:07 34° N 03:02:22 10° N visible
28 Jul ? 02:09:29 22° NE 02:09:29 22° NE 02:12:18 10° NNE visible
28 Jul ? 04:05:26 15° NW 04:05:26 15° NW 04:07:05 10° NW visible
29 Jul ? 03:16:46 23° NNW 03:16:46 23° NNW 03:19:35 10° NNW visible
30 Jul ? 02:28:04 21° N 02:28:04 21° N 02:30:27 10° N visible
31 Jul ? 01:39:21 12° NNE 01:39:21 12° NNE 01:39:58 10° NNE visible
31 Jul ? 03:35:18 12° NNW 03:35:18 12° NNW 03:36:01 10° NNW visible
